TimePDT,TemperatureF,Dew PointF,Humidity,Sea Level PressureIn,VisibilityMPH,Wind Direction,Wind SpeedMPH,Gust SpeedMPH,PrecipitationIn,Events,Conditions,WindDirDegrees,DateUTC
12:53 AM,37.9,36.0,93,29.93,10.0,South,10.4,-,N/A,,Clear,190,2013-05-18 07:53:00
1:53 AM,33.1,30.9,92,29.96,10.0,SSE,5.8,-,N/A,,Clear,160,2013-05-18 08:53:00
2:53 AM,33.1,32.0,96,29.99,10.0,SSE,8.1,-,N/A,,Clear,160,2013-05-18 09:53:00
3:53 AM,33.1,32.0,96,29.98,10.0,South,8.1,-,N/A,,Clear,180,2013-05-18 10:53:00
4:53 AM,33.1,30.9,92,29.99,10.0,South,11.5,-,N/A,,Clear,170,2013-05-18 11:53:00
5:53 AM,32.0,30.9,96,30.01,10.0,South,10.4,-,N/A,,Clear,170,2013-05-18 12:53:00
6:53 AM,37.0,35.1,93,30.01,10.0,SSE,5.8,-,N/A,,Clear,160,2013-05-18 13:53:00
7:53 AM,45.0,39.0,80,29.99,10.0,SSE,8.1,-,N/A,,Clear,160,2013-05-18 14:53:00
8:53 AM,50.0,36.0,59,29.98,10.0,Calm,Calm,-,N/A,,Scattered Clouds,0,2013-05-18 15:53:00
9:53 AM,52.0,36.0,54,29.98,10.0,North,6.9,-,N/A,,Mostly Cloudy,10,2013-05-18 16:53:00
10:53 AM,55.0,33.1,43,29.99,10.0,Calm,Calm,-,0.00,,Mostly Cloudy,0,2013-05-18 17:53:00
11:53 AM,57.0,30.0,36,29.97,10.0,NE,5.8,-,N/A,,Mostly Cloudy,50,2013-05-18 18:53:00
12:53 PM,59.0,26.1,28,29.94,10.0,WNW,10.4,-,N/A,,Scattered Clouds,290,2013-05-18 19:53:00
1:53 PM,60.1,28.0,30,29.95,10.0,Variable,5.8,-,N/A,,Overcast,0,2013-05-18 20:53:00
2:53 PM,60.1,28.0,30,29.94,10.0,NNW,11.5,-,N/A,,Overcast,340,2013-05-18 21:53:00
3:53 PM,60.1,30.0,32,29.94,10.0,North,13.8,-,N/A,,Overcast,10,2013-05-18 22:53:00
4:53 PM,62.1,28.0,28,29.92,10.0,North,13.8,17.3,N/A,,Mostly Cloudy,360,2013-05-18 23:53:00
5:53 PM,60.1,28.0,30,29.94,10.0,NNW,9.2,-,N/A,,Scattered Clouds,340,2013-05-19 00:53:00
6:53 PM,59.0,28.0,31,29.92,10.0,North,17.3,23.0,N/A,,Scattered Clouds,10,2013-05-19 01:53:00
7:53 PM,54.0,28.0,37,29.92,10.0,North,9.2,-,N/A,,Mostly Cloudy,360,2013-05-19 02:53:00
8:53 PM,51.1,30.0,44,29.93,10.0,North,5.8,-,N/A,,Overcast,360,2013-05-19 03:53:00
9:53 PM,46.0,28.9,51,29.96,10.0,WNW,5.8,-,N/A,,Clear,290,2013-05-19 04:53:00
10:53 PM,42.1,28.9,60,29.95,10.0,West,10.4,-,N/A,,Clear,280,2013-05-19 05:53:00
11:53 PM,45.0,28.9,53,29.94,10.0,NW,8.1,-,N/A,,Mostly Cloudy,310,2013-05-19 06:53:00